Zurück zum Katalog

STARLINK-35986

AktivKommunikationVLEO
NORAD 66853·PAYLOAD·🇺🇸 United States

Gestartet Dec 2, 2025 von Cape Canaveral Space Force Station

Loading…

Nächste Überflüge (nächste 24 Stunden)

TLE

AktuellSource: CelesTrak SupGP

Epoche: Sep 14, 2026, 20:57 UTC

1 66853C 25281F   26257.87340278  .00003046  00000+0  11034-3 0  2578
2 66853  43.0016 354.8770 0001610 272.2549 349.4552 15.27570043    14

Verfolge STARLINK-35986 in Echtzeit mit AllMySat

Download on the App Store